This is the latest recevied weather packets stored in our database for station/object W3AJR. If no packets are shown the sender has not sent any weather packets the latest 10 day(s).
| Time | Temp. | Humidity | Pressure | Rain* | Wind** | Luminosity | Snow |
|---|---|---|---|---|---|---|---|
| 1778020589 | 26.11° C | 29% | 1009.4 hPa | 0 mm | - | 95 W/m² | - |
| 1778020285 | 26.67° C | 29% | 1009.3 hPa | 0 mm | - | 78 W/m² | - |
| 1778019981 | 26.67° C | 29% | 1009.3 hPa | 0 mm | - | 90 W/m² | - |
| 1778019678 | 26.67° C | 28% | 1009.3 hPa | 0 mm | - | 98 W/m² | - |
| 1778019375 | 26.67° C | 28% | 1009.3 hPa | 0 mm | - | 81 W/m² | - |
| 1778019071 | 27.22° C | 28% | 1009.1 hPa | 0 mm | - | 56 W/m² | - |
| 1778018769 | 27.22° C | 28% | 1009.2 hPa | 0 mm | - | 65 W/m² | - |
| 1778018466 | 27.22° C | 27% | 1009.3 hPa | 0 mm | - | 75 W/m² | - |
| 1778018164 | 27.78° C | 27% | 1009.1 hPa | 0 mm | - | 87 W/m² | - |
| 1778017862 | 27.78° C | 27% | 1008.9 hPa | 0 mm | - | 107 W/m² | - |
| 1778017560 | 27.78° C | 27% | 1009 hPa | 0 mm | - | 119 W/m² | - |
| 1778017256 | 27.78° C | 27% | 1008.9 hPa | 0 mm | - | 131 W/m² | - |
| 1778016954 | 27.22° C | 29% | 1008.8 hPa | 0 mm | - | 150 W/m² | - |
| 1778016650 | 27.78° C | 30% | 1009.1 hPa | 0 mm | - | 173 W/m² | - |
| 1778016347 | 27.22° C | 31% | 1009 hPa | 0 mm | - | 185 W/m² | - |
| 1778016044 | 27.22° C | 30% | 1009.1 hPa | 0 mm | - | 178 W/m² | - |
| 1778015741 | 26.67° C | 30% | 1009.1 hPa | 0 mm | - | 176 W/m² | - |
| 1778015438 | 26.67° C | 30% | 1009.2 hPa | 0 mm | - | 179 W/m² | - |
| 1778015134 | 27.22° C | 30% | 1009 hPa | 0 mm | - | 180 W/m² | - |
| 1778014832 | 27.22° C | 30% | 1009 hPa | 0 mm | - | 138 W/m² | - |
| 1778014530 | 27.22° C | 31% | 1008.9 hPa | 0 mm | - | 126 W/m² | - |
| 1778014226 | 27.78° C | 31% | 1008.8 hPa | 0 mm | - | 174 W/m² | - |
| 1778013924 | 28.33° C | 30% | 1008.8 hPa | 0 mm | - | 354 W/m² | - |
| 1778013621 | 28.33° C | 30% | 1008.9 hPa | 0 mm | - | 452 W/m² | - |
| 1778013318 | 28.33° C | 29% | 1009 hPa | 0 mm | - | 585 W/m² | - |
* Rain latest hour (hover to see other rain measurements)
** Current wind speed in m/s (hover to see current wind gust speed)